Погода в Блу-Бэй

Маврикий     20°26′33″S   57°43′04″E
темп.,
°C
ветер,
м/с
пор.,
м/с
влажн.,
%
обл.,
%
осадки,
мм/ч
давл.,
гПа
погр.,
м
17 мая, вт
вт1701:00+24юв676998 0.2 1019943
04:00+24юв7769100 0.3 1018987
07:00+24юв78725 0.4 10191055
10:00+25юв78683 0.6 10201172
13:00+25юв786661 0.2 10181229
16:00+24юв997526 1.0 1017982
19:00+24юв101068100 1.3 10181324
22:00+24юв996281 1.4 10191456
18 мая, ср
ср1801:00+24юв78602 0.0 10191457
04:00+24юв78580 0.0 10181441
07:00+24юв78582 0.0 10191393
10:00+24юв88592 0.0 10201419
13:00+24вюв77601 0.0 10181436
16:00+24вюв78611 0.0 10181309
19:00+24вюв78640 0.0 10191215
22:00+24вюв78672 0.1 10201201
19 мая, чт
чт1901:00+24вюв66660 0.1 10201117
04:00+24юв67717 0.1 1018933
07:00+24юв777327 0.2 10201020
10:00+25вюв776816 0.4 10201148
13:00+24вюв887322 0.4 10191051
16:00+24вюв887226 0.7 10181077
19:00+24юв887393 0.2 1020974
22:00+24юв787645 0.9 1020780
20 мая, пт
пт2001:00+24вюв787847 2.9 1020841
04:00+24вюв887939 6.9 1019763
07:00+24вюв89807 3.6 1020762
10:00+24вюв9107644 7.3 1021991
13:00+25вюв897178 2.0 10191175
16:00+25вюв896825 2.1 10191241
19:00+25вюв996685 0.0 10201120
22:00+25в9106697 0.0 10211124
21 мая, сб
сб2101:00+25в89664 0.0 10201145
04:00+24вюв89650 0.0 10191097
07:00+24вюв78671 0.0 10211106
10:00+24вюв88724 0.0 10211079
13:00+24вюв88726 0.3 10191057
16:00+24вюв88738 0.4 10181017
19:00+24вюв897322 0.4 10201067
22:00+25вюв996763 0.8 10201272